Location: Marcé
(47.5801°N, 0.3280°W)
Time: 04:17:02
(UTC+01:00)

Vanguard 1 Rocket - Pass Details

Date: 03 December 2021
Orbit: 651 x 4225 km, 34.3° (Epoch: 26 January)

Event Time Altitude Azimuth Distance (km) Brightness Sun altitude
Exits shadow 03:40:38 40° 154° (SSE) 3,300 10.0 -47.7°
Maximum altitude 03:40:51 40° 152° (SSE) 3,321 10.0 -47.7°
Drops below altitude 10° 03:58:22 10° 93° (E) 6,755 12.3 -44.9°
Sets 04:04:58 0° 88° (E) 8,158 13.0 -43.8°
